Weather History for KLEX - September, 2013

Change the Weather History Date:

Thursday, September 19, 2013

  Actual Average Record
Temperature  
Mean Temperature 73 °F 67 °F  
Max Temperature 81 °F 78 °F 95 °F (1954)
Min Temperature 65 °F 56 °F 38 °F (1973)
Degree Days  
Heating Degree Days 0 2  
Month to date heating degree days 8 14  
Since 1 July heating degree days 11 16  
Cooling Degree Days 8 4  
Month to date cooling degree days 132 114  
Year to date cooling degree days 1170 1131  
Growing Degree Days 22 (Base 50)    
Moisture  
Dew Point 66 °F    
Average Humidity 80    
Maximum Humidity 93    
Minimum Humidity 67    
Precipitation  
Precipitation T in 0.09 in 3.84 in (1910)
Month to date precipitation 0.18 1.84  
Year to date precipitation 43.82 33.51  
Snow  
Snow 0.00 in 0.00 in - ()
Month to date snowfall 0.0 0.0  
Since 1 July snowfall 0.0 0.0  
Since 1 September snowfall 0.0 0.0  
Snow Depth 0.00 in    
Sea Level Pressure  
Sea Level Pressure 30.09 in    
Wind  
Wind Speed 7 mph (SSW)    
Max Wind Speed 13 mph    
Max Gust Speed 18 mph    
Visibility 9 miles    
Events Rain    
T = Trace of Precipitation, MM = Missing Value Source: NWS Daily Summary

Daily Weather History Graph

Daily Weather History Graph

Search for Another Location

Airport or City:

Trip Planner

Search our weather history database for the weather conditions in past years. The results will help you decide how hot, cold, wet, or windy it might be!

Date:

Astronomy

Sep. 19, 2013 Rise Set
Actual Time 7:23 AM EDT 7:39 PM EDT
Civil Twilight 6:57 AM EDT 8:06 PM EDT
Nautical Twilight 6:26 AM EDT 8:36 PM EDT
Astronomical Twilight 5:55 AM EDT 9:08 PM EDT
Moon 7:38 PM EDT (9/19) 7:31 AM EDT (9/19)
Length of Visible Light 13h 08m
Length of Day
12h 15m
Full, 100% of the Moon is Illuminated
Sep 19
Full
Sep 26
Last Quarter
Oct 4
New
Oct 11
First Quarter
Oct 18
Full

Hourly Weather History & Observations

Time (EDT) Temp. Heat Index Dew Point Humidity Pressure Visibility Wind Dir Wind Speed Gust Speed Precip Events Conditions
12:43 AM 69.1 °F - 64.9 °F 87% 30.12 in 10.0 mi South 5.8 mph - 0.00 in   Overcast
12:54 AM 68.0 °F - 64.9 °F 90% 30.10 in 10.0 mi South 5.8 mph - 0.00 in   Mostly Cloudy
1:03 AM 68.0 °F - 64.9 °F 90% 30.12 in 10.0 mi South 6.9 mph - N/A   Scattered Clouds
1:54 AM 66.9 °F - 64.0 °F 90% 30.09 in 10.0 mi South 6.9 mph - N/A   Clear
2:54 AM 66.9 °F - 64.0 °F 90% 30.09 in 9.0 mi South 6.9 mph - N/A   Clear
3:54 AM 66.9 °F - 64.0 °F 90% 30.09 in 9.0 mi South 6.9 mph - N/A   Clear
4:54 AM 66.0 °F - 64.0 °F 93% 30.09 in 7.0 mi South 5.8 mph - N/A   Clear
5:54 AM 64.9 °F - 63.0 °F 93% 30.09 in 6.0 mi South 6.9 mph - N/A   Mostly Cloudy
6:54 AM 64.9 °F - 63.0 °F 93% 30.10 in 6.0 mi South 5.8 mph - N/A   Clear
7:54 AM 66.0 °F - 63.0 °F 90% 30.11 in 6.0 mi South 8.1 mph - N/A   Scattered Clouds
8:54 AM 69.1 °F - 64.9 °F 87% 30.12 in 9.0 mi SSW 9.2 mph - N/A   Mostly Cloudy
9:54 AM 70.0 °F - 64.9 °F 84% 30.13 in 10.0 mi SW 11.5 mph - N/A   Overcast
10:54 AM 72.0 °F - 64.9 °F 78% 30.14 in 10.0 mi WSW 6.9 mph - N/A   Overcast
11:16 AM 71.1 °F - 64.9 °F 81% 30.18 in 9.0 mi NW 9.2 mph - 0.00 in Rain Light Rain
11:45 AM 71.1 °F - 64.9 °F 81% 30.17 in 10.0 mi WSW 5.8 mph - 0.00 in   Overcast
11:54 AM 71.1 °F - 64.9 °F 81% 30.15 in 8.0 mi WSW 5.8 mph - 0.00 in Rain Light Rain
12:54 PM 75.9 °F - 68.0 °F 76% 30.12 in 10.0 mi SW 6.9 mph - 0.00 in Rain Light Rain
1:29 PM 75.9 °F - 66.9 °F 74% 30.13 in 10.0 mi SSW 9.2 mph - 0.00 in   Mostly Cloudy
1:54 PM 77.0 °F - 66.9 °F 71% 30.11 in 10.0 mi WSW 9.2 mph - 0.00 in   Mostly Cloudy
2:01 PM 77.0 °F - 66.9 °F 71% 30.12 in 10.0 mi West 10.4 mph - N/A   Scattered Clouds
2:19 PM 77.0 °F - 66.9 °F 71% 30.12 in 10.0 mi West 8.1 mph - N/A   Mostly Cloudy
2:31 PM 77.0 °F - 68.0 °F 74% 30.11 in 10.0 mi West 8.1 mph - N/A   Scattered Clouds
2:54 PM 77.0 °F - 68.0 °F 74% 30.08 in 10.0 mi SSW 8.1 mph - N/A   Scattered Clouds
3:54 PM 79.0 °F - 68.0 °F 69% 30.05 in 10.0 mi SSW 8.1 mph - N/A   Partly Cloudy
4:54 PM 81.0 °F 83.8 °F 68.0 °F 65% 30.05 in 10.0 mi Variable 5.8 mph - N/A   Clear
5:54 PM 80.1 °F 82.7 °F 68.0 °F 67% 30.04 in 10.0 mi SSW 5.8 mph - N/A   Partly Cloudy
6:54 PM 79.0 °F - 69.1 °F 72% 30.03 in 10.0 mi South 4.6 mph - N/A   Partly Cloudy
7:54 PM 77.0 °F - 68.0 °F 74% 30.03 in 10.0 mi SSE 3.5 mph - N/A   Clear
8:54 PM 73.9 °F - 69.1 °F 85% 30.02 in 10.0 mi SE 5.8 mph - N/A   Clear
9:54 PM 73.0 °F - 69.1 °F 87% 30.01 in 9.0 mi South 8.1 mph - N/A   Clear
10:54 PM 72.0 °F - 68.0 °F 87% 30.02 in 10.0 mi SSW 5.8 mph - N/A   Clear
11:54 PM 72.0 °F - 66.9 °F 84% 30.03 in 10.0 mi South 6.9 mph - N/A   Clear